Location: Steilacoom
(47.1700°N, 122.5700°W)
Time: 07:12:03
(UTC-08:00)

Envisat - Visible Passes

Search period start: 17 December 2018 00:00
Search period end: 27 December 2018 00:00
Orbit: 764 x 766 km, 98.2° (Epoch: 17 December)

Date Brightness Start Highest point End Pass type
(mag) Time Alt. Az. Time Alt. Az. Time Alt. Az.
17 Dec 6.0 06:30:58 10° NE 06:33:35 14° E 06:36:12 10° ESE visible
17 Dec 3.9 17:47:55 10° ESE 17:52:06 26° ENE 17:56:17 10° N visible
17 Dec 3.9 19:26:00 10° S 19:30:53 46° W 19:35:48 10° NNW visible
18 Dec 4.6 17:13:13 10° E 17:15:48 14° NE 17:18:23 10° NNE visible
18 Dec 2.8 18:48:59 10° SSE 18:54:04 85° ENE 18:59:11 10° NNW visible
18 Dec 5.8 20:31:18 10° WSW 20:33:45 13° W 20:36:15 10° WNW visible
19 Dec 5.6 06:55:23 10° NE 06:59:27 23° E 07:03:29 10° SE visible
19 Dec 3.3 18:12:41 10° SE 18:17:26 42° ENE 18:22:13 10° N visible
19 Dec 4.8 19:52:16 10° SSW 19:56:36 28° W 20:00:57 10° NW visible
20 Dec 6.2 06:20:52 10° ENE 06:22:14 11° E 06:23:35 10° E visible
20 Dec 4.1 17:37:11 10° ESE 17:41:01 22° ENE 17:44:51 10° NNE visible
20 Dec 3.5 19:14:39 10° S 19:19:38 58° W 19:24:40 10° NNW visible
21 Dec 4.7 17:03:05 10° ENE 17:04:47 12° NE 17:06:28 10° NE visible
21 Dec 2.8 18:37:50 10° SSE 18:42:53 69° ENE 18:47:57 10° N visible
21 Dec 5.6 20:19:10 10° SW 20:22:25 17° W 20:25:41 10° NW visible
22 Dec 5.8 06:44:32 10° NE 06:48:08 19° E 06:51:42 10° SE visible
22 Dec 3.5 18:01:46 10° SE 18:06:19 34° ENE 18:10:53 10° N visible
22 Dec 4.5 19:40:43 10° SSW 19:45:19 34° W 19:49:57 10° NNW visible
23 Dec 4.3 17:26:33 10° E 17:29:56 18° ENE 17:33:20 10° NNE visible
23 Dec 3.1 19:03:21 10° S 19:08:25 72° WSW 19:13:31 10° NNW visible
24 Dec 5.1 07:09:24 10° NNE 07:13:55 31° E 07:18:25 10° SSE visible
24 Dec 3.0 18:26:46 10° SSE 18:31:43 56° ENE 18:36:42 10° N visible
24 Dec 5.3 20:07:18 10° SW 20:11:05 21° W 20:14:54 10° NW visible
25 Dec 5.9 06:33:51 10° NE 06:36:48 15° E 06:39:44 10° SE visible
25 Dec 3.8 17:50:55 10° ESE 17:55:12 28° ENE 17:59:31 10° N visible
25 Dec 4.1 19:29:15 10° S 19:34:02 43° W 19:38:54 10° NNW visible
26 Dec 4.5 17:16:02 10° E 17:18:53 15° ENE 17:21:45 10° NNE visible
26 Dec 2.9 18:52:07 10° SSE 18:57:13 88° WSW 19:02:20 10° NNW visible
26 Dec 5.9 20:34:56 10° WSW 20:36:58 12° W 20:39:01 10° WNW visible
